Weather History for Madison, WI

Change the Weather History Date:

Friday, January 4, 2013

  Actual Average Record
Temperature  
Mean Temperature 21 °F 19 °F  
Max Temperature 31 °F 26 °F 53 °F (1880)
Min Temperature 11 °F 12 °F -26 °F (1884)
Degree Days  
Heating Degree Days 44 46  
Month to date heating degree days 198 184  
Since 1 July heating degree days 2793 3063  
Cooling Degree Days 0 0  
Month to date cooling degree days 0 0  
Year to date cooling degree days 0 0  
Moisture  
Dew Point 14 °F    
Average Humidity 71    
Maximum Humidity 88    
Minimum Humidity 53    
Precipitation  
Precipitation 0.00 in 0.04 in 1.22 in (1874)
Month to date precipitation T 0.16  
Year to date precipitation T 0.16  
Snow  
Snow 0.00 in 0.40 in 11.70 in (1910)
Month to date snowfall T 1.6  
Since 1 July snowfall 23.5 19.2  
Snow Depth 9.00 in    
Sea Level Pressure  
Sea Level Pressure 30.17 in    
Wind  
Wind Speed 6 mph (WSW)    
Max Wind Speed 13 mph    
Max Gust Speed 22 mph    
Visibility 10 miles    
Events      
T = Trace of Precipitation, MM = Missing Value Source: NWS Daily Summary

Daily Weather History Graph

Daily Weather History Graph

Search for Another Location

Airport:

Trip Planner

Search our weather history database for the weather conditions in past years. The results will help you decide how hot, cold, wet, or windy it might be!

Date:

Astronomy

Jan. 04, 2013 Rise Set
Actual Time 7:29 AM CST 4:36 PM CST
Civil Twilight 6:57 AM CST 5:08 PM CST
Nautical Twilight 6:21 AM CST 5:43 PM CST
Astronomical Twilight 5:46 AM CST 6:18 PM CST
Moon No Moon Rise 10:59 AM CST (1/4)
Length of Visible Light 10h 11m
Length of Day
9h 06m
Waning Gibbous, 55% of the Moon is Illuminated
Jan 4
Waning Gibbous
Jan 4
Last Quarter
Jan 11
New
Jan 18
First Quarter
Jan 26
Full

Hourly Weather History & Observations

Time (CST) Temp. Windchill Dew Point Humidity Pressure Visibility Wind Dir Wind Speed Gust Speed Precip Events Conditions
12:53 AM 10.9 °F 0.2 °F 5.0 °F 77% 30.22 in 10.0 mi WSW 6.9 mph - N/A   Clear
1:53 AM 10.9 °F 2.9 °F 6.1 °F 81% 30.19 in 10.0 mi Variable 4.6 mph - N/A   Clear
2:53 AM 14.0 °F 3.9 °F 9.0 °F 80% 30.18 in 10.0 mi SW 6.9 mph - N/A   Clear
3:53 AM 14.0 °F 2.0 °F 10.0 °F 84% 30.16 in 10.0 mi WSW 9.2 mph 17.3 mph N/A   Clear
4:53 AM 14.0 °F 2.9 °F 10.0 °F 84% 30.14 in 10.0 mi SW 8.1 mph 16.1 mph N/A   Clear
5:53 AM 14.0 °F 5.1 °F 10.0 °F 84% 30.14 in 10.0 mi WSW 5.8 mph - N/A   Clear
6:53 AM 15.1 °F 5.2 °F 10.0 °F 80% 30.15 in 10.0 mi SW 6.9 mph 17.3 mph N/A   Clear
7:53 AM 16.0 °F 6.3 °F 10.9 °F 81% 30.16 in 10.0 mi WSW 6.9 mph - N/A   Clear
8:53 AM 18.0 °F 9.8 °F 12.0 °F 78% 30.14 in 10.0 mi Variable 5.8 mph - N/A   Clear
9:53 AM 19.9 °F 11.1 °F 12.9 °F 74% 30.15 in 10.0 mi Variable 6.9 mph 16.1 mph N/A   Clear
10:53 AM 24.1 °F 17.0 °F 15.1 °F 69% 30.14 in 10.0 mi Variable 5.8 mph - N/A   Clear
11:53 AM 27.0 °F 17.3 °F 15.1 °F 61% 30.12 in 10.0 mi West 10.4 mph 17.3 mph N/A   Clear
12:53 PM 28.9 °F 22.8 °F 16.0 °F 58% 30.11 in 10.0 mi Variable 5.8 mph - N/A   Clear
1:53 PM 30.0 °F 22.4 °F 16.0 °F 56% 30.12 in 10.0 mi West 8.1 mph - N/A   Clear
2:53 PM 30.9 °F 26.2 °F 17.1 °F 57% 30.13 in 10.0 mi Variable 4.6 mph - N/A   Clear
3:53 PM 28.9 °F 21.9 °F 18.0 °F 64% 30.15 in 10.0 mi SW 6.9 mph - N/A   Clear
4:53 PM 28.0 °F 22.8 °F 18.0 °F 66% 30.17 in 10.0 mi Variable 4.6 mph - N/A   Clear
5:53 PM 27.0 °F 23.0 °F 18.0 °F 69% 30.19 in 10.0 mi Variable 3.5 mph - N/A   Clear
6:53 PM 27.0 °F 21.6 °F 18.0 °F 69% 30.20 in 10.0 mi SW 4.6 mph - N/A   Clear
7:53 PM 25.0 °F 18.1 °F 17.1 °F 72% 30.21 in 10.0 mi SW 5.8 mph - N/A   Clear
8:53 PM 25.0 °F 19.3 °F 17.1 °F 72% 30.20 in 10.0 mi WSW 4.6 mph - N/A   Clear
9:53 PM 25.0 °F 20.7 °F 18.0 °F 75% 30.21 in 10.0 mi Variable 3.5 mph - N/A   Clear
10:53 PM 24.1 °F 18.2 °F 18.0 °F 77% 30.22 in 10.0 mi Variable 4.6 mph - N/A   Clear
11:53 PM 23.0 °F - 17.1 °F 78% 30.22 in 10.0 mi Calm Calm - N/A   Clear